DAH2057 EGSS-DAAG

Flight info

Callsign DAH2057
Flight time N/A
Altitude 39000
Route NUGBO M183 SILVA Q41 COWLY DCT GWC UN859 SOPIL DCT BALAN DCT EVPOK DCT NARAK DCT GAI DCT LOMRA DCT ROCAN DCT PUMAL N859 GENIO N855 BUYAH
Aircraft B738/M-SDE2E3FGHIRWXY/LB1

Departure

Time N/A
Airport London Stansted Airport (EGSS)

Arrival

Time 2026-04-30 19:02
Airport Houari Boumediene Airport (DAAG)
Time Latitude Longitude Altitude Speed Heading
2026-04-30 17:39 45.88068 1.24367 39155 ft 434 kts 168°
2026-04-30 17:42 45.58531 1.33997 39141 ft 438 kts 168°
2026-04-30 17:43 45.43634 1.38814 39139 ft 440 kts 168°
2026-04-30 17:44 45.25697 1.44581 39136 ft 441 kts 169°
2026-04-30 17:47 44.99906 1.52811 39132 ft 442 kts 169°
2026-04-30 17:48 44.79881 1.59149 39133 ft 443 kts 170°
2026-04-30 17:50 44.55768 1.66722 39124 ft 444 kts 170°
2026-04-30 17:52 44.37680 1.72361 39119 ft 444 kts 171°
2026-04-30 17:54 44.10383 1.79111 39121 ft 443 kts 175°
2026-04-30 17:56 43.85972 1.83453 39125 ft 440 kts 181°
2026-04-30 17:58 43.67596 1.85099 39131 ft 442 kts 181°
2026-04-30 18:00 43.43118 1.87464 39126 ft 441 kts 181°
2026-04-30 18:01 43.27843 1.88930 39119 ft 440 kts 181°
2026-04-30 18:02 43.09497 1.90689 39126 ft 446 kts 181°
2026-04-30 18:04 42.90524 1.92497 39129 ft 462 kts 181°
2026-04-30 18:06 42.64799 1.95099 39124 ft 464 kts 178°
2026-04-30 18:08 42.42620 1.99626 39139 ft 459 kts 177°
2026-04-30 18:10 42.17466 2.02659 39123 ft 451 kts 181°
2026-04-30 18:11 41.95632 2.04742 39117 ft 448 kts 181°
2026-04-30 18:13 41.80077 2.06221 39113 ft 448 kts 181°
2026-04-30 18:14 41.64530 2.07689 39103 ft 448 kts 181°
2026-04-30 18:15 41.45877 2.09407 39110 ft 447 kts 181°
2026-04-30 18:16 41.33445 2.10548 39100 ft 448 kts 181°
2026-04-30 18:17 41.27274 2.11850 39110 ft 454 kts 170°
2026-04-30 18:18 41.18128 2.15240 39104 ft 454 kts 169°
2026-04-30 18:18 41.12034 2.17460 39099 ft 454 kts 170°
2026-04-30 18:19 41.05934 2.19634 39086 ft 454 kts 169°
2026-04-30 18:19 40.99837 2.21794 39089 ft 453 kts 169°
2026-04-30 18:20 40.93745 2.23950 39082 ft 453 kts 169°
2026-04-30 18:20 40.87706 2.26086 39065 ft 453 kts 169°
2026-04-30 18:21 40.81611 2.28237 39079 ft 453 kts 169°
2026-04-30 18:21 40.75522 2.30384 39074 ft 453 kts 170°
2026-04-30 18:22 40.69435 2.32530 39080 ft 453 kts 170°
2026-04-30 18:22 40.60305 2.35735 39077 ft 453 kts 170°
2026-04-30 18:23 40.54205 2.37845 39077 ft 453 kts 170°
2026-04-30 18:23 40.48103 2.39955 39077 ft 454 kts 170°
2026-04-30 18:24 40.38945 2.43128 39072 ft 454 kts 170°
2026-04-30 18:25 40.32847 2.45238 39068 ft 454 kts 170°
2026-04-30 18:25 40.23690 2.48397 39066 ft 453 kts 170°
2026-04-30 18:26 40.14550 2.51546 39059 ft 452 kts 169°
2026-04-30 18:27 40.05425 2.54690 39061 ft 452 kts 169°
2026-04-30 18:28 39.96314 2.57821 39053 ft 451 kts 169°
2026-04-30 18:28 39.87218 2.60937 39055 ft 450 kts 169°
2026-04-30 18:29 39.75110 2.65073 39046 ft 449 kts 170°
2026-04-30 18:30 39.63021 2.69187 39047 ft 449 kts 170°
2026-04-30 18:31 39.53963 2.72259 39042 ft 449 kts 170°
2026-04-30 18:32 39.44908 2.75324 39049 ft 448 kts 170°
2026-04-30 18:33 39.35866 2.78440 39058 ft 449 kts 169°
2026-04-30 18:33 39.27844 2.81238 39048 ft 448 kts 169°
2026-04-30 18:34 39.18809 2.84370 39057 ft 448 kts 170°
2026-04-30 18:35 39.12788 2.86451 39060 ft 448 kts 170°
2026-04-30 18:35 39.06765 2.88530 39046 ft 448 kts 170°
2026-04-30 18:36 38.97731 2.91614 39056 ft 448 kts 170°
2026-04-30 18:37 38.88687 2.94666 39055 ft 448 kts 170°
2026-04-30 18:37 38.82658 2.96732 39046 ft 448 kts 170°
2026-04-30 18:38 38.76641 2.98792 39051 ft 448 kts 170°
2026-04-30 18:38 38.73630 2.99819 38834 ft 446 kts 170°
2026-04-30 18:38 38.70654 3.00836 38579 ft 439 kts 170°
2026-04-30 18:38 38.67751 3.01826 38128 ft 438 kts 170°
2026-04-30 18:39 38.64799 3.02829 37551 ft 438 kts 170°
2026-04-30 18:39 38.61854 3.03828 37002 ft 438 kts 170°
2026-04-30 18:39 38.58910 3.04827 36452 ft 438 kts 171°
2026-04-30 18:39 38.55970 3.05824 35920 ft 437 kts 171°
2026-04-30 18:40 38.53029 3.06820 35407 ft 437 kts 171°
2026-04-30 18:40 38.50086 3.07817 34902 ft 438 kts 171°
2026-04-30 18:40 38.47127 3.08816 34413 ft 445 kts 171°
2026-04-30 18:40 38.44107 3.09833 33914 ft 452 kts 171°
2026-04-30 18:41 38.41054 3.10865 33351 ft 454 kts 171°
2026-04-30 18:41 38.38015 3.11895 32794 ft 450 kts 170°
2026-04-30 18:41 38.34997 3.12916 32260 ft 447 kts 170°
2026-04-30 18:41 38.32008 3.13924 31719 ft 443 kts 170°
2026-04-30 18:42 38.29019 3.14766 31183 ft 436 kts 177°
2026-04-30 18:42 38.22980 3.14981 30207 ft 447 kts 185°
2026-04-30 18:42 38.19837 3.14969 29635 ft 453 kts 184°
2026-04-30 18:45 37.89737 3.22075 24339 ft 442 kts 169°
2026-04-30 18:45 37.86680 3.23053 23879 ft 461 kts 168°
2026-04-30 18:45 37.83572 3.24050 23350 ft 461 kts 168°
2026-04-30 18:46 37.80481 3.25045 22788 ft 457 kts 168°
2026-04-30 18:46 37.77415 3.26034 22230 ft 453 kts 168°
2026-04-30 18:46 37.74372 3.27014 21691 ft 450 kts 168°
2026-04-30 18:46 37.71349 3.27986 21158 ft 447 kts 168°
2026-04-30 18:47 37.68346 3.28950 20638 ft 444 kts 168°
2026-04-30 18:47 37.65355 3.29908 20115 ft 442 kts 168°
2026-04-30 18:47 37.62382 3.30859 19620 ft 440 kts 168°
2026-04-30 18:47 37.59422 3.31806 19120 ft 437 kts 168°
2026-04-30 18:48 37.56486 3.32744 18643 ft 435 kts 167°
2026-04-30 18:48 37.53562 3.33678 18129 ft 432 kts 167°
2026-04-30 18:48 37.50659 3.34604 17577 ft 429 kts 167°
2026-04-30 18:48 37.47781 3.35523 17032 ft 425 kts 167°
2026-04-30 18:49 37.44926 3.36432 16497 ft 421 kts 168°
2026-04-30 18:49 37.42104 3.37331 15967 ft 417 kts 168°
2026-04-30 18:49 37.39304 3.38222 15453 ft 413 kts 167°
2026-04-30 18:49 37.36568 3.39092 14949 ft 409 kts 167°
2026-04-30 18:50 37.33820 3.39964 14444 ft 406 kts 167°
2026-04-30 18:50 37.31100 3.40827 13955 ft 402 kts 167°
2026-04-30 18:50 37.28394 3.41685 13415 ft 400 kts 167°
2026-04-30 18:50 37.25703 3.42538 12874 ft 397 kts 168°
2026-04-30 18:51 37.23028 3.43385 12344 ft 396 kts 168°
2026-04-30 18:51 37.20368 3.44226 11823 ft 394 kts 168°
2026-04-30 18:51 37.17714 3.45065 11307 ft 393 kts 168°
2026-04-30 18:51 37.15066 3.45902 10802 ft 392 kts 168°
2026-04-30 18:52 37.12430 3.46734 10308 ft 391 kts 168°
2026-04-30 18:52 37.09795 3.47566 9805 ft 389 kts 168°
2026-04-30 18:52 37.07175 3.48391 9270 ft 387 kts 167°
2026-04-30 18:52 37.04569 3.49212 8743 ft 385 kts 167°
2026-04-30 18:53 37.01986 3.50025 8227 ft 381 kts 167°
2026-04-30 18:53 36.99424 3.50831 7715 ft 378 kts 167°
2026-04-30 18:53 36.96888 3.51629 7216 ft 374 kts 167°
2026-04-30 18:53 36.94380 3.52417 6723 ft 371 kts 166°
2026-04-30 18:54 36.91889 3.53199 6218 ft 366 kts 166°
2026-04-30 18:54 36.89476 3.53957 5701 ft 358 kts 166°
2026-04-30 18:54 36.87092 3.54706 5249 ft 349 kts 166°
2026-04-30 18:54 36.84795 3.55426 5109 ft 331 kts 166°
2026-04-30 18:55 36.82619 3.56106 5055 ft 314 kts 166°
2026-04-30 18:55 36.78647 3.55978 5044 ft 276 kts 213°
2026-04-30 18:55 36.77337 3.54344 4953 ft 260 kts 230°
2026-04-30 18:56 36.75160 3.51030 4591 ft 239 kts 229°
2026-04-30 18:56 36.74088 3.49454 4206 ft 238 kts 228°
2026-04-30 18:56 36.73003 3.47889 3808 ft 239 kts 227°
2026-04-30 18:57 36.70841 3.44819 3431 ft 228 kts 228°
2026-04-30 18:57 36.69793 3.43341 3428 ft 228 kts 227°
2026-04-30 18:57 36.68795 3.41844 3318 ft 221 kts 238°
2026-04-30 18:58 36.68742 3.38238 2762 ft 207 kts 275°
2026-04-30 18:58 36.68789 3.36494 2498 ft 195 kts 270°
2026-04-30 18:58 36.68807 3.34879 2256 ft 182 kts 271°
2026-04-30 18:59 36.68864 3.32038 1795 ft 150 kts 272°
2026-04-30 19:00 36.68955 3.28111 1281 ft 151 kts 272°
2026-04-30 19:00 36.68985 3.26798 1080 ft 151 kts 271°
2026-04-30 19:00 36.69039 3.24213 653 ft 150 kts 274°
2026-04-30 19:01 36.69091 3.21635 231 ft 146 kts 274°
2026-04-30 19:01 36.69126 3.20394 82 ft 138 kts 273°
2026-04-30 19:02 36.69170 3.18620 77 ft 55 kts 271°
2026-04-30 19:02 36.69252 3.18428 73 ft 10 kts
2026-04-30 19:03 36.69323 3.18472 68 ft 5 kts 65°
2026-04-30 19:03 36.69332 3.18556 66 ft 11 kts 89°
2026-04-30 19:04 36.69331 3.18862 64 ft 21 kts 92°
2026-04-30 19:04 36.69323 3.19194 70 ft 17 kts 90°
2026-04-30 19:05 36.69323 3.19343 63 ft 2 kts 90°
2026-04-30 19:05 36.69318 3.19474 63 ft 17 kts 92°
2026-04-30 19:06 36.69310 3.19783 69 ft 17 kts 92°
2026-04-30 19:06 36.69307 3.19931 64 ft 17 kts 91°
2026-04-30 19:06 36.69302 3.20239 70 ft 12 kts 79°
2026-04-30 19:07 36.69441 3.20330 67 ft 12 kts 48°
2026-04-30 19:07 36.69515 3.20365 69 ft 11 kts
2026-04-30 19:08 36.69670 3.20370 67 ft 9 kts
2026-04-30 19:08 36.69708 3.20362 69 ft 2 kts 313°
2026-04-30 19:08 36.69714 3.20332 65 ft 6 kts 272°
2026-04-30 19:09 36.69715 3.20286 69 ft 0 kts 271°